Content
SEND FEEDBACK

Daily
Averages
Monthly
Summary
United States of America

EL PASO, TEXAS


Home > North America > United States > Texas
Elevation: 1194 meters     Latitude: 31 48N     Longitude: 106 24W

WEATHER
 
SELECT A DAY
Number of Records: 172,290;   Date Range: 1/1/95 - 9/22/14
 
SHARE

PRINT THIS DATA

[ ← Previous Day ]
WEATHER ALMANAC - 6 JULY, 2013
[ Next Day → ]
[ °F ]   °C
Weather ElementAverageHighLow
Temperature32.6 °C38.3 °C (4:51 pm)24.4 °C (5:51 am)
Dewpoint10.4 °C13.9 °C (2:51 am)7.8 °C (5:51 pm)
Humidity27.1 %50 % (5:51 am)15 % (5:51 pm)
Barometer1004.4 hPa1011.9 hPa (11:35 pm)1000.7 hPa (6:51 pm)
Wind Speed10.3 km/h22.2 km/h (10:51 pm)
Wind Gust35.2 km/h (1:51 pm)
Weather ElementAverage
Visibility16.1 km
Wind DirectionSE (131.2 °)

Weather ElementTotal
Precipitation---
Cooling Degree Days13 (Base 18.3)
Growing Degree Days21.3 (Base 10)
Averaged from 25 records on 6 July, 2013
WEATHER CONDITIONS BREAKOUT
WIND DIRECTION BREAKOUT
WEATHER BY HOUR - 6 JULY, 2013
[ °F ]   °C
Local TimeTemperatureDewpointHumidityBarometerVisibilityWind DirectionWind SpeedGust SpeedPrecipitationEventsConditions
1:51 AM28.3 °C13.3 °C39 %1004.4 hPa16.1 kmSSW (210°)13 km/hMostly Cloudy
2:51 AM27.2 °C13.9 °C44 %1004.4 hPa16.1 kmSW (220°)11.1 km/hScattered Clouds
3:51 AM28.3 °C12.8 °C38 %1004.1 hPa16.1 kmWNW (290°)11.1 km/hScattered Clouds
4:51 AM26.1 °C13.3 °C45 %1004.4 hPa16.1 kmCalmScattered Clouds
5:51 AM24.4 °C13.3 °C50 %1004.7 hPa16.1 kmEast (80°)11.1 km/hScattered Clouds
6:51 AM27.2 °C11.7 °C38 %1005.1 hPa16.1 kmNNW (340°)7.4 km/hScattered Clouds
7:51 AM28.9 °C11.1 °C33 %1005.8 hPa16.1 kmNorth (10°)18.5 km/hMostly Cloudy
8:51 AM28.9 °C11.1 °C33 %1006.1 hPa16.1 kmNE (50°)14.8 km/hMostly Cloudy
9:51 AM30.6 °C11.7 °C31 %1005.8 hPa16.1 kmNorth (10°)9.3 km/hScattered Clouds
10:51 AM31.7 °C11.1 °C28 %1005.8 hPa16.1 kmVariable5.6 km/hScattered Clouds
11:51 AM33.3 °C10.6 °C25 %1005.1 hPa16.1 kmVariable5.6 km/hScattered Clouds
12:51 PM35 °C11.1 °C23 %1004.4 hPa16.1 kmWest (270°)11.1 km/hScattered Clouds
1:51 PM36.7 °C10.6 °C20 %1003.4 hPa16.1 kmWSW (250°)18.5 km/h35.2 km/hScattered Clouds
2:51 PM37.2 °C10 °C19 %1003 hPa16.1 kmWest (260°)13 km/hScattered Clouds
3:51 PM37.8 °C8.9 °C17 %1001.7 hPa16.1 kmVariable5.6 km/hScattered Clouds
4:51 PM38.3 °C8.3 °C16 %1001.4 hPa16.1 kmWest (270°)13 km/hScattered Clouds
5:51 PM38.3 °C7.8 °C15 %1001 hPa16.1 kmNW (320°)9.3 km/hMostly Cloudy
6:51 PM36.7 °C7.8 °C17 %1000.7 hPa16.1 kmEast (90°)7.4 km/hMostly Cloudy
7:51 PM36.1 °C8.3 °C18 %1001 hPa16.1 kmCalmOvercast
8:51 PM35.6 °C8.9 °C19 %1002 hPa16.1 kmNNE (20°)5.6 km/hMostly Cloudy
9:51 PM33.9 °C8.3 °C20 %1002.7 hPa16.1 kmEast (90°)13 km/hMostly Cloudy
10:11 PM34 °C9 °C21 %1011.5 hPa16.1 kmEast (100°)13 km/hThunderstormThunderstorm
10:51 PM33.9 °C8.9 °C21 %1003.4 hPa16.1 kmSE (130°)22.2 km/hThunderstormThunderstorm
11:35 PM33 °C9 °C23 %1011.9 hPa16.1 kmSE (130°)11.1 km/hMostly Cloudy
11:51 PM32.2 °C8.9 °C24 %1003 hPa16.1 kmSE (140°)7.4 km/hMostly Cloudy
Hourly data recorded from KELP, located 0 kilometers away from El Paso, Texas







STORIES FROM OUR PARTNERS